カタログに戻る

STRV 1C

運用中科学GTO
NORAD 26610·PAYLOAD·🇬🇧 United Kingdom

打ち上げ Nov 16, 2000 から Guiana Space Centre

Loading…

TLE

古いSource: Space-Track

元期: Sep 13, 2026, 14:58 UTC

1 26610U 00072C   26256.62392863 -.00000354  00000-0  35483-2 0  9992
2 26610   7.1388 341.8150 7338428 236.9626  31.5271  2.03546809191899

AllMySatでSTRV 1Cをリアルタイム追跡

Download on the App Store